| time (UTC) | temp F | wind direction | speed MPH | gust MPH | rain 1hr in | rain 24hr in | rain mn in | humidity % | barometer mb |
| 20260504202435 | 77 | 136 | 4.0 | 12.0 | 0.00 | 0.03 | 0.03 | 44 | 1018.6 |
| 20260504201932 | 77 | 265 | 4.0 | 14.0 | 0.00 | 0.03 | 0.03 | 43 | 1018.6 |
| 20260504201429 | 77 | 219 | 6.0 | 9.0 | 0.00 | 0.03 | 0.03 | 44 | 1018.6 |
| 20260504200927 | 77 | 197 | 4.0 | 9.0 | 0.00 | 0.03 | 0.03 | 47 | 1018.8 |
| 20260504200423 | 78 | 187 | 6.0 | 11.0 | 0.00 | 0.03 | 0.03 | 44 | 1019.1 |
| 20260504195920 | 78 | 224 | 3.0 | 4.0 | 0.00 | 0.03 | 0.03 | 45 | 1018.9 |
| 20260504195416 | 77 | 231 | 5.0 | 7.0 | 0.00 | 0.03 | 0.03 | 42 | 1018.8 |
| 20260504194913 | 77 | 180 | 7.0 | 15.0 | 0.00 | 0.03 | 0.03 | 42 | 1018.9 |
| 20260504194408 | 77 | 219 | 6.0 | 9.0 | 0.00 | 0.03 | 0.03 | 44 | 1019.2 |
| 20260504193905 | 77 | 204 | 4.0 | 11.0 | 0.00 | 0.03 | 0.03 | 45 | 1019.4 |
| 20260504193402 | 78 | 199 | 5.0 | 10.0 | 0.00 | 0.03 | 0.03 | 43 | 1019.5 |
| 20260504192901 | 77 | 167 | 1.0 | 4.0 | 0.00 | 0.03 | 0.03 | 41 | 1019.4 |
| 20260504192358 | 77 | 219 | 3.0 | 5.0 | 0.00 | 0.03 | 0.03 | 49 | 1019.7 |
| 20260504191856 | 77 | 225 | 7.0 | 11.0 | 0.00 | 0.03 | 0.03 | 44 | 1019.5 |
| 20260504191354 | 77 | 231 | 8.0 | 11.0 | 0.00 | 0.03 | 0.03 | 43 | 1019.7 |
| 20260504190849 | 77 | 231 | 5.0 | 8.0 | 0.00 | 0.03 | 0.03 | 43 | 1019.7 |
| 20260504190345 | 78 | 212 | 7.0 | 10.0 | 0.00 | 0.03 | 0.03 | 44 | 1019.5 |
| 20260504185842 | 77 | 228 | 4.0 | 10.0 | 0.00 | 0.03 | 0.03 | 45 | 1019.9 |
| 20260504185339 | 77 | 192 | 4.0 | 6.0 | 0.00 | 0.03 | 0.03 | 49 | 1020.0 |
| 20260504184835 | 77 | 224 | 6.0 | 7.0 | 0.00 | 0.03 | 0.03 | 49 | 1019.9 |
| 20260504184331 | 76 | 204 | 2.0 | 5.0 | 0.00 | 0.03 | 0.03 | 50 | 1019.7 |
| 20260504183827 | 76 | 196 | 4.0 | 11.0 | 0.00 | 0.03 | 0.03 | 49 | 1019.8 |
| 20260504183324 | 77 | 118 | 3.0 | 6.0 | 0.00 | 0.03 | 0.03 | 44 | 1019.8 |
| 20260504182822 | 77 | 226 | 2.0 | 10.0 | 0.00 | 0.03 | 0.03 | 44 | 1019.9 |
| 20260504182319 | 77 | 48 | 4.0 | 4.0 | 0.00 | 0.03 | 0.03 | 43 | 1019.9 |
| 20260504181816 | 76 | 222 | 5.0 | 11.0 | 0.00 | 0.03 | 0.03 | 44 | 1019.9 |
| 20260504181314 | 76 | 204 | 6.0 | 11.0 | 0.00 | 0.03 | 0.03 | 45 | 1020.2 |
| 20260504180813 | 77 | 205 | 13.0 | 14.0 | 0.00 | 0.03 | 0.03 | 43 | 1020.3 |
| 20260504180311 | 77 | 311 | 0.0 | 4.0 | 0.00 | 0.03 | 0.03 | 49 | 1020.2 |
| 20260504175808 | 76 | 235 | 4.0 | 15.0 | 0.00 | 0.03 | 0.03 | 45 | 1020.5 |
| 20260504175305 | 77 | 215 | 5.0 | 7.0 | 0.00 | 0.03 | 0.03 | 42 | 1020.4 |
| 20260504174803 | 77 | 194 | 5.0 | 5.0 | 0.00 | 0.03 | 0.03 | 47 | 1020.7 |
| 20260504174300 | 76 | 189 | 3.0 | 5.0 | 0.00 | 0.03 | 0.03 | 47 | 1020.5 |
| 20260504173757 | 76 | 201 | 5.0 | 10.0 | 0.00 | 0.03 | 0.03 | 43 | 1020.6 |
| 20260504173254 | 76 | 146 | 5.0 | 7.0 | 0.00 | 0.03 | 0.03 | 46 | 1020.7 |
| 20260504172750 | 76 | 212 | 8.0 | 12.0 | 0.00 | 0.03 | 0.03 | 45 | 1020.6 |
| 20260504172247 | 75 | 197 | 0.0 | 6.0 | 0.00 | 0.03 | 0.03 | 45 | 1020.7 |
| 20260504171743 | 75 | 200 | 2.0 | 3.0 | 0.00 | 0.03 | 0.03 | 48 | 1020.9 |
| 20260504171240 | 75 | 215 | 8.0 | 11.0 | 0.00 | 0.03 | 0.03 | 49 | 1020.9 |
| 20260504170737 | 75 | 205 | 4.0 | 11.0 | 0.00 | 0.03 | 0.03 | 45 | 1021.2 |
| 20260504170235 | 75 | 203 | 10.0 | 11.0 | 0.00 | 0.03 | 0.03 | 45 | 1021.0 |
| 20260504160153 | 73 | 169 | 4.0 | 14.0 | 0.00 | 0.03 | 0.03 | 54 | 1021.3 |
| 20260504151121 | 71 | 254 | 4.0 | 5.0 | 0.00 | 0.03 | 0.03 | 58 | 1021.5 |
| 20260504150618 | 71 | 201 | 5.0 | 6.0 | 0.00 | 0.03 | 0.03 | 60 | 1021.4 |
| 20260504150115 | 71 | 60 | 0.0 | 1.0 | 0.00 | 0.03 | 0.03 | 62 | 1021.5 |
| 20260504141044 | 64 | 204 | 5.0 | 6.0 | 0.00 | 0.00 | 0.00 | 79 | 1021.8 |
| 20260504140540 | 63 | 237 | 5.0 | 6.0 | 0.00 | 0.00 | 0.00 | 86 | 1021.7 |
| 20260504130504 | 52 | 348 | 1.0 | 2.0 | 0.00 | 0.00 | 0.00 | 99 | 1021.5 |
| 20260504110351 | 48 | 287 | 1.0 | 2.0 | 0.00 | 0.00 | 0.00 | 99 | 1021.0 |
| 20260504100309 | 48 | 322 | 1.0 | 2.0 | 0.00 | 0.00 | 0.00 | 99 | 1020.9 |
| 20260504081703 | 50 | 320 | 1.0 | 2.0 | 0.00 | 0.00 | 0.00 | 99 | 1021.3 |
| 20260504081159 | 50 | 306 | 2.0 | 3.0 | 0.00 | 0.00 | 0.00 | 99 | 1021.5 |
| 20260504080655 | 50 | 311 | 1.0 | 2.0 | 0.00 | 0.00 | 0.00 | 99 | 1021.1 |
| 20260504080152 | 50 | 332 | 1.0 | 2.0 | 0.00 | 0.00 | 0.00 | 99 | 1021.1 |
| 20260504070120 | 51 | 34 | 0.0 | 0.0 | 0.00 | 0.00 | 0.00 | 99 | 1021.8 |
| 20260504050508 | 53 | 323 | 2.0 | 2.0 | 0.00 | 0.00 | 0.00 | 98 | 1022.5 |
| 20260504050005 | 53 | 330 | 2.0 | 2.0 | 0.00 | 0.00 | 0.00 | 98 | 1022.6 |
| 20260504045501 | 53 | 307 | 0.0 | 2.0 | 0.00 | 0.00 | 0.00 | 98 | 1022.6 |
| 20260504044957 | 54 | 319 | 0.0 | 2.0 | 0.00 | 0.00 | 0.00 | 98 | 1022.4 |
| 20260504044455 | 54 | 319 | 0.0 | 2.0 | 0.00 | 0.00 | 0.00 | 98 | 1022.7 |
| 20260504043952 | 54 | 293 | 1.0 | 2.0 | 0.00 | 0.00 | 0.00 | 98 | 1022.5 |
| 20260504043449 | 54 | 323 | 2.0 | 2.0 | 0.00 | 0.00 | 0.00 | 98 | 1022.7 |
| 20260504042946 | 54 | 342 | 2.0 | 3.0 | 0.00 | 0.00 | 0.00 | 97 | 1022.6 |
| 20260504042443 | 54 | 327 | 3.0 | 3.0 | 0.00 | 0.00 | 0.00 | 97 | 1022.8 |
| 20260504041940 | 54 | 325 | 2.0 | 2.0 | 0.00 | 0.00 | 0.00 | 97 | 1022.5 |
| 20260504041436 | 55 | 277 | 1.0 | 2.0 | 0.00 | 0.00 | 0.00 | 97 | 1022.7 |
| 20260504040932 | 55 | 295 | 2.0 | 3.0 | 0.00 | 0.00 | 0.00 | 97 | 1022.5 |
| 20260504040430 | 55 | 330 | 3.0 | 3.0 | 0.00 | 0.00 | 0.00 | 97 | 1022.7 |
| 20260504035925 | 55 | 334 | 2.0 | 2.0 | 0.00 | 0.00 | 0.00 | 97 | 1022.7 |
| 20260504035423 | 55 | 296 | 1.0 | 1.0 | 0.00 | 0.00 | 0.00 | 97 | 1022.7 |
| 20260504034919 | 55 | 328 | 2.0 | 2.0 | 0.00 | 0.00 | 0.00 | 97 | 1022.7 |
| 20260504034417 | 55 | 333 | 2.0 | 2.0 | 0.00 | 0.00 | 0.00 | 97 | 1022.6 |
| 20260504033914 | 55 | 327 | 2.0 | 2.0 | 0.00 | 0.00 | 0.00 | 97 | 1022.7 |
| 20260504033412 | 55 | 331 | 2.0 | 2.0 | 0.00 | 0.00 | 0.00 | 97 | 1022.7 |
| 20260504032909 | 56 | 332 | 2.0 | 3.0 | 0.00 | 0.00 | 0.00 | 96 | 1022.4 |
| 20260504032405 | 56 | 310 | 2.0 | 2.0 | 0.00 | 0.00 | 0.00 | 96 | 1022.6 |
| 20260504031902 | 56 | 323 | 2.0 | 2.0 | 0.00 | 0.00 | 0.00 | 96 | 1022.7 |
| 20260504031359 | 56 | 332 | 2.0 | 2.0 | 0.00 | 0.00 | 0.00 | 96 | 1022.7 |
| 20260504030855 | 56 | 325 | 1.0 | 2.0 | 0.00 | 0.00 | 0.00 | 96 | 1022.7 |
| 20260504030353 | 56 | 323 | 2.0 | 2.0 | 0.00 | 0.00 | 0.00 | 96 | 1022.6 |
| 20260504025849 | 56 | 328 | 1.0 | 2.0 | 0.00 | 0.00 | 0.00 | 95 | 1022.6 |
| 20260504025346 | 57 | 324 | 1.0 | 2.0 | 0.00 | 0.00 | 0.00 | 95 | 1022.9 |
| 20260504024843 | 57 | 331 | 1.0 | 2.0 | 0.00 | 0.00 | 0.00 | 95 | 1022.7 |
| 20260504024339 | 57 | 313 | 1.0 | 2.0 | 0.00 | 0.00 | 0.00 | 94 | 1022.5 |
| 20260504023836 | 57 | 280 | 0.0 | 1.0 | 0.00 | 0.00 | 0.00 | 94 | 1022.4 |
| 20260504023333 | 57 | 315 | 2.0 | 2.0 | 0.00 | 0.00 | 0.00 | 94 | 1022.5 |
| 20260504022828 | 57 | 312 | 2.0 | 2.0 | 0.00 | 0.00 | 0.00 | 93 | 1022.3 |
| 20260504022326 | 58 | 301 | 1.0 | 2.0 | 0.00 | 0.00 | 0.00 | 93 | 1022.3 |
| 20260504021822 | 58 | 296 | 2.0 | 2.0 | 0.00 | 0.00 | 0.00 | 93 | 1022.5 |
| 20260504021320 | 58 | 312 | 2.0 | 3.0 | 0.00 | 0.00 | 0.00 | 92 | 1022.3 |
| 20260504020816 | 58 | 293 | 1.0 | 2.0 | 0.00 | 0.00 | 0.00 | 91 | 1022.4 |
| 20260504020313 | 59 | 326 | 2.0 | 2.0 | 0.00 | 0.00 | 0.00 | 91 | 1022.2 |
| 20260504015809 | 59 | 271 | 1.0 | 2.0 | 0.00 | 0.00 | 0.00 | 90 | 1022.1 |
| 20260504015305 | 59 | 303 | 0.0 | 0.0 | 0.00 | 0.00 | 0.00 | 89 | 1022.1 |
| 20260504014801 | 60 | 308 | 0.0 | 2.0 | 0.00 | 0.00 | 0.00 | 88 | 1022.1 |
| 20260504014258 | 60 | 317 | 2.0 | 2.0 | 0.00 | 0.00 | 0.00 | 87 | 1021.9 |
| 20260504013755 | 60 | 333 | 1.0 | 2.0 | 0.00 | 0.00 | 0.00 | 86 | 1022.0 |
| 20260504013253 | 61 | 333 | 1.0 | 2.0 | 0.00 | 0.00 | 0.00 | 84 | 1021.9 |
| 20260504012749 | 61 | 280 | 0.0 | 1.0 | 0.00 | 0.00 | 0.00 | 83 | 1022.0 |
| 20260504012247 | 62 | 311 | 1.0 | 2.0 | 0.00 | 0.00 | 0.00 | 83 | 1021.6 |
| 20260504011744 | 62 | 312 | 2.0 | 2.0 | 0.00 | 0.00 | 0.00 | 82 | 1021.8 |
| 20260504011241 | 62 | 316 | 2.0 | 3.0 | 0.00 | 0.00 | 0.00 | 81 | 1021.7 |
| 20260504010737 | 63 | 291 | 1.0 | 2.0 | 0.00 | 0.00 | 0.00 | 79 | 1021.7 |
| 20260504010232 | 64 | 288 | 0.0 | 1.0 | 0.00 | 0.00 | 0.00 | 78 | 1021.6 |
| 20260504005730 | 64 | 287 | 1.0 | 1.0 | 0.00 | 0.00 | 0.00 | 76 | 1021.5 |
| 20260504005227 | 65 | 283 | 0.0 | 3.0 | 0.00 | 0.00 | 0.00 | 75 | 1021.5 |
| 20260504004724 | 65 | 308 | 2.0 | 2.0 | 0.00 | 0.00 | 0.00 | 73 | 1021.4 |
| 20260504004221 | 66 | 325 | 2.0 | 2.0 | 0.00 | 0.00 | 0.00 | 71 | 1021.5 |
| 20260504003718 | 66 | 320 | 3.0 | 3.0 | 0.00 | 0.00 | 0.00 | 71 | 1021.5 |
| 20260504003215 | 67 | 293 | 2.0 | 2.0 | 0.00 | 0.00 | 0.00 | 70 | 1021.6 |
| 20260504002711 | 68 | 323 | 2.0 | 3.0 | 0.00 | 0.00 | 0.00 | 67 | 1021.5 |
| 20260504002208 | 68 | 324 | 2.0 | 3.0 | 0.00 | 0.00 | 0.00 | 68 | 1021.4 |
| 20260504001707 | 69 | 323 | 2.0 | 3.0 | 0.00 | 0.00 | 0.00 | 66 | 1021.5 |
| 20260504001203 | 70 | 319 | 2.0 | 2.0 | 0.00 | 0.00 | 0.00 | 64 | 1021.5 |
| 20260504000700 | 70 | 300 | 2.0 | 2.0 | 0.00 | 0.00 | 0.00 | 62 | 1021.5 |
| 20260504000157 | 71 | 331 | 2.0 | 2.0 | 0.00 | 0.00 | 0.00 | 61 | 1021.5 |
| 20260503235655 | 71 | 322 | 1.0 | 2.0 | 0.00 | 0.00 | 0.00 | 58 | 1021.4 |
| 20260503235151 | 72 | 214 | 0.0 | 1.0 | 0.00 | 0.00 | 0.00 | 57 | 1021.7 |
| 20260503234649 | 73 | 309 | 2.0 | 2.0 | 0.00 | 0.00 | 0.00 | 57 | 1021.6 |
| 20260503234147 | 73 | 290 | 2.0 | 2.0 | 0.00 | 0.00 | 0.00 | 52 | 1021.6 |
| 20260503233644 | 73 | 216 | 2.0 | 3.0 | 0.00 | 0.00 | 0.00 | 48 | 1021.7 |
| 20260503233139 | 74 | 226 | 2.0 | 2.0 | 0.00 | 0.00 | 0.00 | 49 | 1021.9 |
| 20260503232636 | 74 | 242 | 0.0 | 0.0 | 0.00 | 0.00 | 0.00 | 48 | 1022.0 |
| 20260503232134 | 74 | 220 | 3.0 | 3.0 | 0.00 | 0.00 | 0.00 | 42 | 1022.0 |
| 20260503231632 | 74 | 237 | 1.0 | 2.0 | 0.00 | 0.00 | 0.00 | 45 | 1021.9 |
| 20260503231128 | 74 | 266 | 2.0 | 2.0 | 0.00 | 0.00 | 0.00 | 44 | 1022.0 |
| 20260503230625 | 75 | 173 | 2.0 | 4.0 | 0.00 | 0.00 | 0.00 | 43 | 1022.0 |
| 20260503230122 | 75 | 258 | 3.0 | 4.0 | 0.00 | 0.00 | 0.00 | 46 | 1021.9 |
| 20260503225620 | 75 | 243 | 2.0 | 3.0 | 0.00 | 0.00 | 0.00 | 45 | 1022.0 |
| 20260503225119 | 75 | 322 | 2.0 | 3.0 | 0.00 | 0.00 | 0.00 | 45 | 1022.1 |
| 20260503224617 | 75 | 213 | 3.0 | 3.0 | 0.00 | 0.00 | 0.00 | 45 | 1022.0 |
| 20260503224115 | 75 | 156 | 0.0 | 3.0 | 0.00 | 0.00 | 0.00 | 45 | 1022.2 |
| 20260503223613 | 75 | 260 | 2.0 | 5.0 | 0.00 | 0.00 | 0.00 | 42 | 1022.2 |
| 20260503223108 | 75 | 252 | 2.0 | 5.0 | 0.00 | 0.00 | 0.00 | 44 | 1022.1 |
| 20260503222606 | 75 | 269 | 2.0 | 3.0 | 0.00 | 0.00 | 0.00 | 45 | 1022.4 |
| 20260503222104 | 75 | 311 | 4.0 | 7.0 | 0.00 | 0.00 | 0.00 | 45 | 1022.3 |
| 20260503221602 | 75 | 207 | 1.0 | 3.0 | 0.00 | 0.00 | 0.00 | 42 | 1022.3 |
| 20260503221059 | 75 | 225 | 5.0 | 7.0 | 0.00 | 0.00 | 0.00 | 42 | 1022.2 |
| 20260503220555 | 75 | 213 | 8.0 | 9.0 | 0.00 | 0.00 | 0.00 | 43 | 1022.4 |
| 20260503220052 | 76 | 175 | 3.0 | 6.0 | 0.00 | 0.00 | 0.00 | 41 | 1022.3 |
| 20260503215549 | 75 | 243 | 2.0 | 3.0 | 0.00 | 0.00 | 0.00 | 41 | 1022.4 |
| 20260503215046 | 75 | 223 | 3.0 | 4.0 | 0.00 | 0.00 | 0.00 | 41 | 1022.6 |
| 20260503214544 | 75 | 313 | 1.0 | 5.0 | 0.00 | 0.00 | 0.00 | 40 | 1022.6 |
| 20260503214040 | 76 | 324 | 4.0 | 7.0 | 0.00 | 0.00 | 0.00 | 40 | 1022.7 |
| 20260503213539 | 77 | 277 | 3.0 | 8.0 | 0.00 | 0.00 | 0.00 | 43 | 1022.5 |
| 20260503213035 | 77 | 294 | 4.0 | 5.0 | 0.00 | 0.00 | 0.00 | 41 | 1022.6 |
| 20260503212533 | 77 | 250 | 1.0 | 3.0 | 0.00 | 0.00 | 0.00 | 40 | 1022.7 |
| 20260503212030 | 78 | 37 | 4.0 | 5.0 | 0.00 | 0.00 | 0.00 | 43 | 1022.9 |
| 20260503211527 | 77 | 286 | 2.0 | 2.0 | 0.00 | 0.00 | 0.00 | 38 | 1022.8 |
| 20260503211022 | 77 | 288 | 4.0 | 6.0 | 0.00 | 0.00 | 0.00 | 39 | 1023.1 |
| 20260503210519 | 77 | 249 | 4.0 | 6.0 | 0.00 | 0.00 | 0.00 | 42 | 1023.1 |
| 20260503210015 | 77 | 236 | 4.0 | 9.0 | 0.00 | 0.00 | 0.00 | 40 | 1023.3 |
| 20260503205512 | 77 | 200 | 4.0 | 6.0 | 0.00 | 0.00 | 0.00 | 43 | 1023.2 |
| 20260503205009 | 78 | 294 | 2.0 | 5.0 | 0.00 | 0.00 | 0.00 | 40 | 1023.4 |
| 20260503204506 | 78 | 299 | 3.0 | 9.0 | 0.00 | 0.00 | 0.00 | 40 | 1023.4 |
| 20260503204002 | 78 | 263 | 2.0 | 4.0 | 0.00 | 0.00 | 0.00 | 42 | 1023.4 |
| 20260503203500 | 77 | 241 | 3.0 | 5.0 | 0.00 | 0.00 | 0.00 | 42 | 1023.5 |
| 20260503202956 | 77 | 215 | 5.0 | 5.0 | 0.00 | 0.00 | 0.00 | 39 | 1023.6 |